Location: Chacón
(10.5789°N, 66.9317°W)
Time: 14:38:16
(UTC+00:00)

Cosmos 1727 Rocket - Pass Details

Date: 13 August 2024
Orbit: 960 x 997 km, 82.9° (Epoch: 08 September)

Event Time Altitude Azimuth Distance (km) Brightness Sun altitude
Rises 01:35:48 0° 320° (NW) 3,637 7.8 -39.5°
Reaches altitude 10° 01:40:24 10° 288° (WNW) 2,687 7.0 -40.5°
Maximum altitude 01:42:13 11° 271° (W) 2,586 6.7 -40.9°
Drops below altitude 10° 01:44:03 10° 253° (WSW) 2,686 6.7 -41.3°
Enters shadow 01:47:09 - 229° (SW) 3,240 6.9 -41.9°
